Zurück zum Katalog

CHINASAT 7

AktivKommunikationHEO
NORAD 24282·PAYLOAD·🇨🇳 China

Gestartet Aug 18, 1996 von Xichang Satellite Launch Center

Loading…

Nächste Überflüge (nächste 24 Stunden)

TLE

AlterndSource: Space-Track

Epoche: Aug 29, 2026, 07:19 UTC

1 24282U 96048A   26241.30536156 -.00000022  00000-0  00000+0 0  9993
2 24282  16.5842 180.7872 3505527 273.2911 302.5144  1.06658581119494

Verfolge CHINASAT 7 in Echtzeit mit AllMySat

Download on the App Store